Location: Lancaster
(34.6980°N, 118.1360°W)
Time: 12:56:49
(UTC-07:00)

Tiangong 2 - Visible Passes

Search period start: 18 July 2018 00:00
Search period end: 28 July 2018 00:00
Orbit: 386 x 394 km, 42.8° (Epoch: 18 July)

Date Brightness Start Highest point End Pass type
(mag) Time Alt. Az. Time Alt. Az. Time Alt. Az.
18 Jul 3.2 22:03:12 10° NW 22:05:47 22° N 22:06:37 20° NE visible
19 Jul 3.5 21:05:30 10° NW 21:07:54 19° N 21:10:17 10° NE visible
19 Jul 3.6 22:42:10 10° NW 22:43:38 23° NW 22:43:38 23° NW visible
20 Jul 2.6 21:44:34 10° NW 21:47:27 30° NNE 21:48:20 25° NE visible
21 Jul 3.1 20:46:57 10° NW 20:49:34 23° NNE 20:52:13 10° ENE visible
21 Jul 2.9 22:23:33 10° WNW 22:25:22 31° WNW 22:25:22 31° WNW visible
22 Jul 1.7 21:25:53 10° NW 21:29:00 49° NNE 21:30:06 32° E visible
23 Jul 2.5 20:28:16 10° NW 20:31:11 32° NNE 20:34:06 10° E visible
23 Jul 2.5 22:05:04 10° WNW 22:07:12 32° WSW 22:07:12 32° WSW visible
24 Jul 1.0 21:07:15 10° WNW 21:10:27 84° SSW 21:12:00 27° ESE visible
25 Jul 3.1 21:46:57 10° W 21:49:11 20° SW 21:49:11 20° SW visible
26 Jul 2.1 20:48:46 10° WNW 20:51:46 38° SW 20:54:07 14° SSE visible
